Simultaneous Nadir Overpasses (SNOs) Predictions

Prediction of SNOs between GOES-15 and NOAA-19 Satellite Orbit:

Table of predicted SNOs for the next 14.0 days since TLE Epoch: 3/14/2025
Index Date Time (GOES-15) GOES-15 Lat,Lon NOAA-19 Lat,Lon Distance(km) Time Diff (sec)
1 03/15/2025 05:25:56 -0.05, 61.30 -0.66, 64.08 316.53 80
2 03/17/2025 17:44:42 0.06, 61.25 -0.31, 59.60 188.53 80
3 03/18/2025 17:29:28 0.06, 61.25 0.37, 62.65 159.69 80
4 03/21/2025 05:48:12 -0.08, 61.31 0.66, 58.18 357.61 80
5 03/22/2025 05:35:38 -0.08, 61.32 -0.04, 61.23 9.73 80
6 03/23/2025 05:25:43 -0.08, 61.32 -0.75, 64.29 338.22 80
7 03/25/2025 17:44:29 0.09, 61.29 -0.23, 59.80 169.09 80
8 03/26/2025 17:29:14 0.09, 61.30 0.42, 62.87 178.40 80
